Flag for United Kingdom Weather past 2 weeks in Aylesbury, England, United Kingdom

Now
55 °F

Cool.


Feels Like: 52 °F
Forecast: 36 / 53 °F
Wind: 8 mph from Northwest

Location: High Wicombe Hqstc


UV Index: 3 (Moderate)

Visibility: 19 mi


Pressure: 30.07 "Hg

Humidity: 65%

Dew point: 43 °F

Location of AylesburyLocation

Historic Weather in Aylesbury

°F

Aylesbury temperature yesterday

Maximum temperature yesterday: 60 °F (at 4:00 PM)
Minimum temperature yesterday: 38 °F (at 3:00 AM)
Average temperature yesterday: 48 °F

Past Weeks' High & Low Weather Summary

 TemperatureHumidityPressure
High62 °F (Apr 3, 3:00 PM)100% (Apr 4, 1:00 AM)30.45 "Hg (Apr 4, 1:00 AM)
Low38 °F (Apr 16, 3:00 AM)38% (Apr 16, 9:00 PM)29.47 "Hg (Apr 3, 4:00 PM)
Average50 °F77%30.04 "Hg
* Reported Apr 2 5:00 PM — Apr 17 5:00 PM, Aylesbury, Weather by CustomWeather, © 2014

Note: Actual official high and low records may vary slightly from our data, if they occured in-between our weather recording intervals... More about our weather records

Advertising

Historic Weather Conditions — Data for Previous 24 hours

 ConditionsComfort  
Time TempWeatherWind HumidityBarometerVisibility
5:00 PM
Apr 17
55 °FCool.8 mph65%30.07 "Hg19 mi
4:00 PM55 °FCool.8 mph64%30.07 "Hg28 mi
3:00 PM56 °FCool.6 mph65%30.08 "Hg13 mi
2:00 PM57 °FCool.7 mph62%30.08 "Hg9 mi
1:00 PM57 °FRefreshingly cool.6 mph56%30.09 "Hg12 mi
12:00 PM57 °FRefreshingly cool.7 mph55%30.10 "Hg10 mi
11:00 AM54 °FCool.8 mph58%30.14 "Hg11 mi
10:00 AM52 °FCool.8 mph63%30.14 "Hg11 mi
9:00 AM51 °FCool.5 mph57%30.14 "Hg17 mi
8:00 AM45 °FCool.3 mph82%30.15 "Hg6 mi
7:00 AM43 °FSmoke.3 mph90%30.17 "Hg6 mi
6:00 AM43 °FQuite cool.3 mph82%30.16 "Hg7 mi
5:00 AM45 °FQuite cool.6 mph72%30.16 "Hg9 mi
4:00 AM45 °FCool.6 mph66%30.20 "Hg12 mi
3:00 AM44 °FQuite cool.5 mph65%30.22 "Hg11 mi
2:00 AM44 °FQuite cool.5 mph62%30.23 "Hg12 mi
1:00 AM46 °FCool.5 mph59%30.24 "Hg12 mi
12:00 AM46 °FCool.6 mph55%30.24 "Hg14 mi
11:00 PM
Apr 16
47 °FCool.6 mph50%30.26 "Hg17 mi
10:00 PM49 °FCool.5 mph38%30.26 "Hg28 mi
Weather by CustomWeather, © 2014

See weather overview